Location: Newark
(51.2656°N, 3.9089°E)
Time: 02:44:41
(UTC+00:00)

ISS - Visible Passes

Search period start: 22 March 2019 00:00
Search period end: 01 April 2019 00:00
Orbit: 406 x 411 km, 51.6° (Epoch: 22 March)

Date Brightness Start Highest point End Pass type
(mag) Time Alt. Az. Time Alt. Az. Time Alt. Az.
22 Mar -1.8 20:12:20 10° SW 20:13:32 20° SW 20:13:32 20° SW visible
23 Mar -2.8 19:21:39 10° SSW 19:24:32 28° SSE 19:25:11 26° SE visible
23 Mar -0.9 20:57:32 10° WSW 20:57:58 13° WSW 20:57:58 13° WSW visible
24 Mar -3.6 20:06:32 10° WSW 20:09:26 58° SSW 20:09:26 58° SSW visible
25 Mar -3.5 19:15:36 10° SW 19:18:48 48° SSE 19:20:44 21° E visible
25 Mar -1.7 20:51:59 10° W 20:53:29 25° W 20:53:29 25° W visible
26 Mar -3.9 20:00:54 10° W 20:04:13 89° SSE 20:04:40 64° E visible
27 Mar -3.9 19:09:50 10° WSW 19:13:08 75° SSE 19:15:45 15° E visible
27 Mar -2.3 20:46:25 10° W 20:48:29 36° W 20:48:29 36° W visible
28 Mar -3.8 19:55:17 10° W 19:58:36 81° N 19:59:30 45° E visible
28 Mar -0.7 21:31:54 10° W 21:32:13 12° W 21:32:13 12° W visible
29 Mar -3.8 19:04:09 10° W 19:07:28 86° N 19:10:27 12° E visible
29 Mar -2.8 20:40:46 10° W 20:43:10 45° W 20:43:10 45° W visible
30 Mar -3.9 19:49:38 10° W 19:52:57 87° NNE 19:54:05 38° E visible
30 Mar -0.9 21:26:15 10° W 21:26:49 14° W 21:26:49 14° W visible
31 Mar -3.8 18:58:28 10° W 19:01:47 82° N 19:04:59 11° E visible
31 Mar -3.0 20:35:04 10° W 20:37:42 45° WSW 20:37:42 45° WSW visible
